[[{"header":{"parameterUnit":"m.s-1","parameterCategory":1,"la1":30.2991,"la2":30.254,"lo1":-89.0895,"lo2":-89.0444,"dy":0.0017,"dx":0.0017,"nx":28,"ny":28,"refTime":"2023-08-31T09:00:00:Z","depth":0,"parameterNumber":2,"parameterNumberName":"U-component_of_WINDS"},"data":[0,0,0,0,0,0,0,0,0,0,0,0,0,0,0,0,0,0,0,0,0,0,0,0,0,0,0,0,0,0,0,0,0,0,0,0,0,0,0,0,0,0,0,0,0,0,0,0,0,0,0,0,0,0,0,0,0,0,-0.2831,-0.2831,0,-0.2843,-0.2843,-0.2843,-0.2853,-0.2853,-0.2853,-0.2853,-0.2867,-0.2867,-0.2867,0,0,0,0,0,0,0,0,0,0,0,0,0,-0.2815,-0.2816,-0.2831,-0.2831,-0.2831,-0.2843,-0.2843,-0.2843,-0.2853,-0.2853,-0.2853,-0.2853,-0.2867,-0.2867,-0.2867,0,0,0,0,0,0,0,0,0,0,0,0,0,-0.2824,-0.2816,-0.2831,-0.2837,-0.2838,-0.2843,-0.2843,-0.2843,-0.2853,-0.2853,-0.2853,-0.2853,-0.2866,-0.2867,-0.2867,-0.2867,0,0,-0.2869,-0.2869,0,0,0,0,0,0,0,0,-0.2824,-0.2825,-0.2836,-0.2837,-0.2838,-0.2847,-0.2843,-0.2851,-0.2853,-0.2847,-0.2853,-0.2853,-0.286,-0.2861,-0.2863,-0.2868,-0.2868,-0.2869,-0.2869,-0.2869,-0.2869,0,0,0,0,0,0,0,-0.2823,-0.2824,-0.2836,-0.2836,-0.2837,-0.2839,-0.2841,-0.2844,-0.2853,-0.2848,-0.2848,-0.285,-0.286,-0.2863,-0.2863,-0.2869,-0.2869,-0.2869,-0.2869,-0.2869,-0.2872,-0.2872,0,0,0,0,0,0,-0.2822,-0.2824,-0.2835,-0.2836,-0.2831,-0.284,-0.2841,-0.2844,-0.2853,-0.2854,-0.285,-0.285,-0.2862,-0.2863,-0.2864,-0.2863,-0.2869,-0.2869,-0.287,-0.2872,-0.2872,-0.2872,0,0,0,0,0,0,-0.2821,-0.2822,-0.2835,-0.283,-0.2832,-0.284,-0.2842,-0.2844,-0.2846,-0.2854,-0.2856,-0.285,-0.2862,-0.2863,-0.2866,-0.2864,-0.287,-0.287,-0.2873,-0.2872,-0.2872,-0.2863,0,0,0,0,0,0,-0.2821,-0.2822,-0.2822,-0.283,-0.2832,-0.2837,-0.2842,-0.2844,-0.2846,-0.2847,-0.2855,-0.2857,-0.2862,-0.2865,-0.2866,-0.2865,-0.287,-0.2873,-0.2872,-0.2872,-0.2863,-0.2862,-0.2861,0,0,0,0,0,-0.282,-0.282,-0.2822,-0.2824,-0.2832,-0.2837,-0.2838,-0.2844,-0.2846,-0.2846,-0.2851,-0.2856,-0.2864,-0.2865,-0.2867,-0.2865,-0.2873,-0.2872,-0.2872,-0.2864,-0.2862,-0.2861,0,0,0,0,0,0,-0.2813,-0.2821,-0.2824,-0.2826,-0.283,-0.2838,-0.2839,-0.2842,-0.2846,-0.2847,-0.2855,-0.2856,-0.2858,-0.2862,-0.2863,-0.2864,-0.2869,-0.2869,-0.2862,-0.2861,-0.286,-0.2859,-0.2871,0,0,0,0,0,-0.2811,-0.2814,-0.2821,-0.2822,-0.2824,-0.2831,-0.2833,-0.2837,-0.2842,-0.2844,-0.2849,-0.2854,-0.2857,-0.2859,-0.2863,-0.2864,-0.2865,-0.2863,-0.2862,-0.2861,-0.2861,-0.286,-0.2859,-0.2871,-0.2871,-0.2871,0,0,-0.2808,-0.2813,-0.2815,-0.2821,-0.2825,-0.2827,-0.2832,-0.2835,-0.2836,-0.2844,-0.2847,-0.2851,-0.2856,-0.2857,-0.2858,-0.2861,-0.2858,-0.2861,-0.286,-0.286,-0.286,-0.2858,-0.2858,-0.287,-0.287,-0.287,0,0,-0.2804,-0.2808,-0.2809,-0.2812,-0.2818,-0.2822,-0.2822,-0.2829,-0.2831,-0.2834,-0.2839,-0.2841,-0.2847,-0.285,-0.2853,-0.2848,-0.2852,-0.2849,-0.2844,-0.2843,-0.2842,-0.2841,-0.2839,-0.2838,-0.2849,-0.2849,-0.2849,0,-0.28,-0.2804,-0.2809,-0.2811,-0.2813,-0.2819,-0.282,-0.2823,-0.2829,-0.2831,-0.2833,-0.2839,-0.2844,-0.2845,-0.2844,-0.2846,-0.2846,-0.2848,-0.2842,-0.2841,-0.284,-0.2838,-0.2837,-0.2848,-0.2848,-0.2848,-0.2848,0,-0.2798,-0.28,-0.28,-0.2805,-0.2807,-0.2808,-0.2814,-0.2815,-0.2819,-0.2822,-0.2824,-0.2829,-0.2833,-0.2834,-0.2838,-0.2835,-0.2837,-0.284,-0.2845,-0.2839,-0.2836,-0.2835,-0.2847,-0.2848,-0.2848,-0.2848,0,0,-0.2791,-0.2797,-0.2797,-0.2799,-0.2804,-0.2806,-0.2807,-0.281,-0.2811,-0.2815,-0.2815,-0.2819,-0.2822,-0.2825,-0.2829,-0.2828,-0.2822,-0.2832,-0.2832,-0.2829,-0.2819,-0.2815,-0.2814,-0.2825,-0.2825,-0.2825,-0.2818,0,-0.2787,-0.2789,-0.2793,-0.2793,-0.2795,-0.28,-0.28,-0.2804,-0.2807,-0.2808,-0.2812,-0.2814,-0.2818,-0.282,-0.2819,-0.2823,-0.282,-0.2824,-0.2825,-0.2825,-0.2823,-0.2813,-0.281,-0.2804,-0.2817,-0.2817,-0.2817,0,-0.2783,-0.2785,-0.2786,-0.2789,-0.279,-0.2791,-0.2793,-0.2795,-0.2798,-0.28,-0.2802,-0.2806,-0.2807,-0.2811,-0.2811,-0.2813,-0.2814,-0.2816,-0.2816,-0.2816,-0.282,-0.2813,-0.2802,-0.28,-0.2816,-0.2816,-0.2816,0,-0.2777,-0.278,-0.278,-0.2781,-0.2786,-0.2786,-0.2788,-0.2791,-0.2793,-0.2795,-0.2795,-0.2798,-0.2799,-0.2801,-0.2805,-0.2808,-0.2804,-0.2809,-0.2806,-0.2805,-0.2805,-0.2805,-0.2793,-0.2806,-0.2806,-0.2806,-0.2806,0,-0.2772,-0.2772,-0.2777,-0.2777,-0.2776,-0.2781,-0.278,-0.2783,-0.2785,-0.2786,-0.2791,-0.2791,-0.2797,-0.2797,-0.28,-0.2799,-0.28,-0.2802,-0.2802,-0.2801,-0.2801,-0.2801,-0.2802,-0.2806,-0.2806,-0.2806,-0.2806,0,-0.2765,-0.2769,-0.2769,-0.2773,-0.2774,-0.2773,-0.2776,-0.2776,-0.2779,-0.2779,-0.2779,-0.2784,-0.2784,-0.2789,-0.2791,-0.2793,-0.2791,-0.2793,-0.2789,-0.279,-0.2786,-0.2786,-0.2774,-0.2772,-0.2787,-0.2786,-0.2786,0,-0.2762,-0.2762,-0.2765,-0.2765,-0.2767,-0.2767,-0.2768,-0.2772,-0.2772,-0.2775,-0.2774,-0.2775,-0.2776,-0.2777,-0.278,-0.2781,-0.2783,-0.2779,-0.2783,-0.2781,-0.2782,-0.2782,-0.2781,-0.2778,-0.2778,-0.2778,-0.2777,0,-0.2756,-0.2757,-0.2758,-0.2758,-0.2759,-0.276,-0.2761,-0.2761,-0.2765,-0.2766,-0.2766,-0.2767,-0.2768,-0.2768,-0.277,-0.2771,-0.2775,-0.2776,-0.2775,-0.2773,-0.2771,-0.2771,-0.2786,-0.2776,-0.2776,-0.2776,-0.2776,-0.2777,-0.275,-0.2749,-0.2751,-0.2751,-0.2752,-0.2753,-0.2752,-0.2754,-0.2755,-0.2756,-0.2758,-0.2758,-0.2759,-0.2761,-0.2762,-0.2762,-0.2764,-0.2763,-0.2763,-0.2762,-0.2761,-0.2771,-0.2762,-0.2762,-0.2762,-0.2762,-0.2762,0,-0.2743,-0.2744,-0.2744,-0.2745,-0.2745,-0.2747,-0.2748,-0.2748,-0.2747,-0.2749,-0.2749,-0.2748,-0.2748,-0.2751,-0.2751,-0.275,-0.2752,-0.275,-0.275,-0.275,-0.276,-0.276,-0.2749,-0.2749,-0.2749,-0.2749,-0.2749,-0.2749,-0.274,-0.2738,-0.2739,-0.2738,-0.2739,-0.2738,-0.2738,-0.2738,-0.2739,-0.2738,-0.2738,-0.2739,-0.2741,-0.2741,-0.274,-0.2741,-0.274,-0.2738,-0.2739,-0.2748,-0.275,-0.2751,-0.2751,-0.2738,-0.2738,-0.273,-0.273,-0.273]},{"header":{"parameterUnit":"m.s-1","parameterCategory":1,"la1":30.2991,"la2":30.254,"lo1":-89.0895,"lo2":-89.0444,"dy":0.0017,"dx":0.0017,"nx":28,"ny":28,"refTime":"2023-08-31T09:00:00:Z","depth":0,"parameterNumber":3,"parameterNumberName":"V-component_of_WINDS"},"data":[0,0,0,0,0,0,0,0,0,0,0,0,0,0,0,0,0,0,0,0,0,0,0,0,0,0,0,0,0,0,0,0,0,0,0,0,0,0,0,0,0,0,0,0,0,0,0,0,0,0,0,0,0,0,0,0,0,0,-0.7162,-0.7163,0,-0.7196,-0.7197,-0.7197,-0.725,-0.7251,-0.7252,-0.7253,-0.7285,-0.7285,-0.7285,0,0,0,0,0,0,0,0,0,0,0,0,0,-0.714,-0.714,-0.7162,-0.7163,-0.7163,-0.7196,-0.7197,-0.7197,-0.725,-0.7251,-0.7253,-0.7254,-0.7285,-0.7285,-0.7285,0,0,0,0,0,0,0,0,0,0,0,0,0,-0.7159,-0.714,-0.7162,-0.7194,-0.7197,-0.7196,-0.7197,-0.7197,-0.725,-0.7252,-0.7253,-0.7254,-0.7285,-0.7285,-0.7285,-0.7255,0,0,-0.7285,-0.7285,0,0,0,0,0,0,0,0,-0.7158,-0.716,-0.7189,-0.7192,-0.7195,-0.7221,-0.7201,-0.7217,-0.725,-0.723,-0.7253,-0.7255,-0.7262,-0.7264,-0.7267,-0.7257,-0.7258,-0.7285,-0.7284,-0.7284,-0.7284,0,0,0,0,0,0,0,-0.7157,-0.7159,-0.7176,-0.7189,-0.7193,-0.7205,-0.7209,-0.7204,-0.7237,-0.7232,-0.7236,-0.7239,-0.7264,-0.7267,-0.7268,-0.7258,-0.7285,-0.7284,-0.7284,-0.7284,-0.7224,-0.7222,0,0,0,0,0,0,-0.7151,-0.7158,-0.7175,-0.7177,-0.718,-0.7204,-0.7209,-0.7211,-0.7238,-0.7243,-0.7238,-0.7241,-0.7267,-0.7268,-0.727,-0.7236,-0.7284,-0.7284,-0.7284,-0.7225,-0.7224,-0.7222,0,0,0,0,0,0,-0.7151,-0.7152,-0.7173,-0.7168,-0.7172,-0.7203,-0.7205,-0.7211,-0.7214,-0.7242,-0.7248,-0.7235,-0.7268,-0.727,-0.7258,-0.7237,-0.7284,-0.7284,-0.7227,-0.7225,-0.7223,-0.7168,0,0,0,0,0,0,-0.715,-0.7152,-0.7142,-0.7168,-0.7172,-0.7162,-0.7203,-0.721,-0.7214,-0.7219,-0.7241,-0.7246,-0.7269,-0.7258,-0.7258,-0.7238,-0.7284,-0.7229,-0.7226,-0.7223,-0.7171,-0.7164,-0.7157,0,0,0,0,0,-0.7149,-0.7124,-0.7141,-0.7142,-0.716,-0.7161,-0.7163,-0.7191,-0.7212,-0.7201,-0.722,-0.7245,-0.724,-0.7256,-0.7257,-0.7237,-0.7231,-0.7227,-0.7224,-0.7175,-0.7165,-0.7157,0,0,0,0,0,0,-0.7094,-0.7128,-0.7147,-0.713,-0.7142,-0.717,-0.7157,-0.718,-0.7186,-0.719,-0.7224,-0.7228,-0.7212,-0.7224,-0.7241,-0.7209,-0.7239,-0.7236,-0.7202,-0.7193,-0.7186,-0.7183,-0.7284,0,0,0,0,0,-0.708,-0.7079,-0.7109,-0.7091,-0.7096,-0.7125,-0.7127,-0.7148,-0.7161,-0.7166,-0.7183,-0.7194,-0.7195,-0.7195,-0.7197,-0.7174,-0.7178,-0.716,-0.7153,-0.7147,-0.7143,-0.713,-0.7121,-0.721,-0.721,-0.7211,0,0,-0.7051,-0.7069,-0.7066,-0.708,-0.7092,-0.7089,-0.7129,-0.7125,-0.7122,-0.7165,-0.7155,-0.7168,-0.7183,-0.7165,-0.7158,-0.7174,-0.7119,-0.7142,-0.7137,-0.7137,-0.7125,-0.7117,-0.7109,-0.7208,-0.7208,-0.7209,0,0,-0.6996,-0.7011,-0.6997,-0.7008,-0.7026,-0.7046,-0.7042,-0.7066,-0.7077,-0.7068,-0.71,-0.7097,-0.7098,-0.7107,-0.7111,-0.7059,-0.7083,-0.7059,-0.7021,-0.7008,-0.7001,-0.6995,-0.6975,-0.6968,-0.7055,-0.7055,-0.7055,0,-0.6957,-0.6955,-0.6987,-0.698,-0.6984,-0.7024,-0.701,-0.7019,-0.7036,-0.7037,-0.7055,-0.7057,-0.707,-0.7054,-0.7041,-0.7044,-0.704,-0.7056,-0.7,-0.6994,-0.6989,-0.697,-0.6963,-0.7052,-0.7053,-0.7053,-0.7053,0,-0.6905,-0.6903,-0.689,-0.6906,-0.6909,-0.6899,-0.6928,-0.6927,-0.6948,-0.6965,-0.6954,-0.6971,-0.6977,-0.6975,-0.6995,-0.6962,-0.6971,-0.6994,-0.7025,-0.6977,-0.6959,-0.6953,-0.7048,-0.7049,-0.705,-0.7051,0,0,-0.6816,-0.685,-0.6845,-0.6852,-0.6875,-0.6873,-0.6864,-0.6871,-0.6868,-0.6879,-0.6871,-0.6871,-0.6892,-0.6897,-0.6918,-0.6907,-0.6863,-0.6931,-0.6932,-0.6917,-0.6826,-0.6807,-0.6799,-0.6879,-0.6878,-0.6877,-0.6824,0,-0.6764,-0.6751,-0.678,-0.6759,-0.6757,-0.6795,-0.6786,-0.6798,-0.6814,-0.6814,-0.6831,-0.683,-0.6859,-0.6862,-0.6853,-0.687,-0.6845,-0.6875,-0.6871,-0.687,-0.6864,-0.679,-0.6771,-0.672,-0.6818,-0.6817,-0.6816,0,-0.6702,-0.671,-0.669,-0.6713,-0.6713,-0.6705,-0.6713,-0.6713,-0.6727,-0.6739,-0.6745,-0.6769,-0.6761,-0.6792,-0.6779,-0.6799,-0.6799,-0.6807,-0.6806,-0.6805,-0.6839,-0.6786,-0.6704,-0.6696,-0.6806,-0.6807,-0.6808,0,-0.6637,-0.6643,-0.6631,-0.6637,-0.6664,-0.6657,-0.6668,-0.6683,-0.6685,-0.6692,-0.6694,-0.6699,-0.6701,-0.6705,-0.673,-0.675,-0.6713,-0.6747,-0.6722,-0.6721,-0.6711,-0.6711,-0.6627,-0.6714,-0.6714,-0.6714,-0.6714,0,-0.6576,-0.6561,-0.6602,-0.6595,-0.6579,-0.6612,-0.6595,-0.661,-0.6623,-0.6618,-0.6651,-0.6646,-0.668,-0.6678,-0.6697,-0.6683,-0.6684,-0.6693,-0.6698,-0.6689,-0.6688,-0.6688,-0.6692,-0.6712,-0.6713,-0.6713,-0.6713,0,-0.65,-0.6527,-0.6516,-0.6543,-0.6549,-0.6537,-0.6559,-0.6552,-0.6571,-0.6564,-0.6564,-0.6592,-0.6591,-0.6617,-0.6621,-0.6634,-0.6611,-0.6623,-0.6606,-0.6609,-0.6583,-0.6584,-0.6494,-0.6484,-0.6578,-0.6578,-0.6577,0,-0.6458,-0.6448,-0.6474,-0.6473,-0.6483,-0.6482,-0.6484,-0.6516,-0.6517,-0.6532,-0.6523,-0.6525,-0.6528,-0.6524,-0.6544,-0.6547,-0.6559,-0.6527,-0.6559,-0.655,-0.6557,-0.6556,-0.6555,-0.652,-0.6519,-0.6518,-0.6517,0,-0.6381,-0.6395,-0.6398,-0.6405,-0.6407,-0.6414,-0.6423,-0.642,-0.6455,-0.6454,-0.6454,-0.6456,-0.6461,-0.6461,-0.6468,-0.6478,-0.6502,-0.6507,-0.6501,-0.6491,-0.6481,-0.6485,-0.6586,-0.6509,-0.6509,-0.651,-0.651,-0.6511,-0.632,-0.6312,-0.6329,-0.6331,-0.6341,-0.6349,-0.6344,-0.6362,-0.6363,-0.6369,-0.6388,-0.6384,-0.6397,-0.6409,-0.6417,-0.6414,-0.6429,-0.6421,-0.6419,-0.6416,-0.641,-0.6483,-0.6415,-0.6415,-0.6416,-0.6416,-0.6416,0,-0.6243,-0.6256,-0.6257,-0.6269,-0.627,-0.6295,-0.6306,-0.6304,-0.6301,-0.6313,-0.6315,-0.6314,-0.6315,-0.6336,-0.6339,-0.6332,-0.6343,-0.6332,-0.6332,-0.6333,-0.6397,-0.6401,-0.6322,-0.6322,-0.6322,-0.6323,-0.6323,-0.6323,-0.6203,-0.6191,-0.6207,-0.62,-0.6213,-0.621,-0.6214,-0.6221,-0.623,-0.6228,-0.6229,-0.6243,-0.6257,-0.6262,-0.6263,-0.6269,-0.6268,-0.6252,-0.6261,-0.632,-0.6329,-0.6337,-0.6341,-0.6252,-0.6252,-0.6198,-0.6197,-0.6197]}]]